| time (UTC) | temp C | wind direction | speed KPH | gust KPH | rain 1hr cm | rain 24hr cm | rain mn cm | humidity % | barometer mb |
| 20260509054155 | 10 | 197 | 0.0 | 1.6 | 0.00 | 0.00 | 0.00 | 84 | 1006.4 |
| 20260509053654 | 10 | 197 | 1.6 | 1.6 | 0.00 | 0.00 | 0.00 | 84 | 1006.0 |
| 20260509053150 | 9 | 196 | 0.0 | 0.0 | 0.00 | 0.00 | 0.00 | 82 | 1006.2 |
| 20260509052648 | 9 | 196 | 0.0 | 1.6 | 0.00 | 0.00 | 0.00 | 81 | 1006.2 |
| 20260509052145 | 9 | 196 | 0.0 | 1.6 | 0.00 | 0.00 | 0.00 | 80 | 1006.0 |
| 20260509051643 | 8 | 196 | 0.0 | 0.0 | 0.00 | 0.00 | 0.00 | 78 | 1005.8 |
| 20260509051140 | 8 | 196 | 0.0 | 0.0 | 0.00 | 0.00 | 0.00 | 76 | 1005.9 |
| 20260509050637 | 8 | 195 | 0.0 | 0.0 | 0.00 | 0.00 | 0.00 | 75 | 1006.1 |
| 20260509050133 | 8 | 195 | 0.0 | 1.6 | 0.00 | 0.00 | 0.00 | 74 | 1006.1 |
| 20260509045631 | 8 | 195 | 0.0 | 0.0 | 0.00 | 0.00 | 0.00 | 75 | 1006.4 |
| 20260509045128 | 8 | 195 | 0.0 | 0.0 | 0.00 | 0.00 | 0.00 | 73 | 1006.1 |
| 20260509044625 | 8 | 195 | 0.0 | 0.0 | 0.00 | 0.00 | 0.00 | 75 | 1006.3 |
| 20260509044122 | 8 | 195 | 0.0 | 0.0 | 0.00 | 0.00 | 0.00 | 75 | 1006.3 |
| 20260509043618 | 8 | 195 | 0.0 | 0.0 | 0.00 | 0.00 | 0.00 | 74 | 1006.1 |
| 20260509043114 | 8 | 195 | 0.0 | 0.0 | 0.00 | 0.00 | 0.00 | 74 | 1006.2 |
| 20260509042611 | 8 | 195 | 0.0 | 0.0 | 0.00 | 0.00 | 0.00 | 75 | 1006.2 |
| 20260509042106 | 8 | 195 | 1.6 | 3.2 | 0.00 | 0.00 | 0.00 | 76 | 1006.1 |
| 20260509041604 | 8 | 195 | 0.0 | 0.0 | 0.00 | 0.00 | 0.00 | 76 | 1006.1 |
| 20260509041101 | 7 | 195 | 0.0 | 0.0 | 0.00 | 0.00 | 0.00 | 76 | 1006.4 |
| 20260509040600 | 7 | 195 | 0.0 | 0.0 | 0.00 | 0.00 | 0.00 | 77 | 1006.4 |
| 20260509040056 | 7 | 195 | 0.0 | 0.0 | 0.00 | 0.00 | 0.00 | 77 | 1006.2 |
| 20260509035553 | 8 | 195 | 0.0 | 0.0 | 0.00 | 0.00 | 0.00 | 77 | 1006.5 |
| 20260509035049 | 8 | 195 | 0.0 | 0.0 | 0.00 | 0.00 | 0.00 | 79 | 1006.2 |
| 20260509034548 | 8 | 195 | 0.0 | 3.2 | 0.00 | 0.00 | 0.00 | 80 | 1006.3 |
| 20260509034044 | 8 | 190 | 3.2 | 4.8 | 0.00 | 0.00 | 0.00 | 83 | 1006.3 |
| 20260509033542 | 8 | 196 | 0.0 | 1.6 | 0.00 | 0.00 | 0.00 | 84 | 1006.4 |
| 20260509033039 | 8 | 196 | 0.0 | 3.2 | 0.00 | 0.00 | 0.00 | 83 | 1006.5 |
| 20260509032536 | 8 | 196 | 0.0 | 1.6 | 0.00 | 0.00 | 0.00 | 82 | 1006.6 |
| 20260509032033 | 8 | 196 | 1.6 | 3.2 | 0.00 | 0.00 | 0.00 | 82 | 1006.4 |
| 20260509031530 | 8 | 196 | 0.0 | 0.0 | 0.00 | 0.00 | 0.00 | 81 | 1006.8 |
| 20260509031027 | 8 | 196 | 0.0 | 1.6 | 0.00 | 0.00 | 0.00 | 82 | 1006.6 |
| 20260509030526 | 8 | 195 | 1.6 | 3.2 | 0.00 | 0.00 | 0.00 | 83 | 1006.7 |
| 20260509030022 | 8 | 196 | 1.6 | 1.6 | 0.00 | 0.00 | 0.00 | 82 | 1006.6 |
| 20260509025518 | 8 | 195 | 1.6 | 1.6 | 0.00 | 0.00 | 0.00 | 81 | 1006.8 |
| 20260509025014 | 8 | 196 | 1.6 | 1.6 | 0.00 | 0.00 | 0.00 | 79 | 1006.7 |
| 20260509024509 | 8 | 196 | 1.6 | 3.2 | 0.00 | 0.00 | 0.00 | 78 | 1006.8 |
| 20260509024006 | 9 | 201 | 1.6 | 3.2 | 0.00 | 0.00 | 0.00 | 76 | 1006.9 |
| 20260509023504 | 9 | 202 | 0.0 | 3.2 | 0.00 | 0.00 | 0.00 | 74 | 1006.8 |
| 20260509023001 | 9 | 201 | 1.6 | 3.2 | 0.00 | 0.00 | 0.00 | 74 | 1006.7 |
| 20260509022457 | 9 | 202 | 0.0 | 0.0 | 0.00 | 0.00 | 0.00 | 74 | 1006.7 |
| 20260509021955 | 9 | 201 | 0.0 | 0.0 | 0.00 | 0.00 | 0.00 | 75 | 1006.8 |
| 20260509021452 | 9 | 201 | 0.0 | 0.0 | 0.00 | 0.00 | 0.00 | 73 | 1006.9 |
| 20260509020949 | 10 | 201 | 0.0 | 3.2 | 0.00 | 0.00 | 0.00 | 75 | 1006.9 |
| 20260509020447 | 10 | 211 | 1.6 | 1.6 | 0.00 | 0.00 | 0.00 | 71 | 1006.8 |
| 20260509015943 | 10 | 212 | 0.0 | 0.0 | 0.00 | 0.00 | 0.00 | 69 | 1006.8 |
| 20260509015443 | 10 | 212 | 0.0 | 0.0 | 0.00 | 0.00 | 0.00 | 68 | 1006.8 |
| 20260509014939 | 10 | 212 | 0.0 | 0.0 | 0.00 | 0.00 | 0.00 | 65 | 1006.8 |
| 20260509014436 | 10 | 212 | 0.0 | 0.0 | 0.00 | 0.00 | 0.00 | 64 | 1006.7 |
| 20260509013932 | 10 | 212 | 0.0 | 0.0 | 0.00 | 0.00 | 0.00 | 61 | 1006.7 |
| 20260509013429 | 10 | 212 | 1.6 | 3.2 | 0.00 | 0.00 | 0.00 | 62 | 1006.8 |
| 20260509012924 | 11 | 212 | 1.6 | 3.2 | 0.00 | 0.00 | 0.00 | 61 | 1006.7 |
| 20260509012421 | 11 | 213 | 0.0 | 0.0 | 0.00 | 0.00 | 0.00 | 56 | 1006.6 |
| 20260509011919 | 11 | 213 | 0.0 | 0.0 | 0.00 | 0.00 | 0.00 | 56 | 1006.6 |
| 20260509011416 | 11 | 213 | 0.0 | 1.6 | 0.00 | 0.00 | 0.00 | 56 | 1006.5 |
| 20260509010914 | 11 | 213 | 0.0 | 1.6 | 0.00 | 0.00 | 0.00 | 50 | 1006.4 |
| 20260509010411 | 12 | 213 | 1.6 | 3.2 | 0.00 | 0.00 | 0.00 | 47 | 1006.6 |
| 20260509005907 | 12 | 213 | 1.6 | 1.6 | 0.00 | 0.00 | 0.00 | 47 | 1006.4 |
| 20260509005406 | 12 | 213 | 1.6 | 3.2 | 0.00 | 0.00 | 0.00 | 49 | 1006.4 |
| 20260509004906 | 12 | 213 | 1.6 | 3.2 | 0.00 | 0.00 | 0.00 | 47 | 1006.7 |
| 20260509004402 | 13 | 213 | 1.6 | 3.2 | 0.00 | 0.00 | 0.00 | 48 | 1006.5 |
| 20260509003900 | 13 | 213 | 1.6 | 3.2 | 0.00 | 0.00 | 0.00 | 48 | 1006.3 |
| 20260509003358 | 13 | 213 | 1.6 | 3.2 | 0.00 | 0.00 | 0.00 | 47 | 1006.4 |
| 20260509002854 | 13 | 213 | 1.6 | 3.2 | 0.00 | 0.00 | 0.00 | 47 | 1006.3 |
| 20260509002352 | 13 | 213 | 1.6 | 1.6 | 0.00 | 0.00 | 0.00 | 46 | 1006.2 |
| 20260509001850 | 14 | 213 | 1.6 | 3.2 | 0.00 | 0.00 | 0.00 | 45 | 1006.3 |
| 20260509001345 | 14 | 213 | 4.8 | 4.8 | 0.00 | 0.00 | 0.00 | 44 | 1006.4 |
| 20260509000843 | 15 | 212 | 1.6 | 4.8 | 0.00 | 0.00 | 0.00 | 43 | 1006.5 |
| 20260509000341 | 15 | 220 | 0.0 | 3.2 | 0.00 | 0.00 | 0.00 | 43 | 1006.4 |
| 20260508235837 | 15 | 224 | 1.6 | 3.2 | 0.00 | 0.00 | 0.00 | 44 | 1006.4 |
| 20260508235334 | 15 | 227 | 1.6 | 3.2 | 0.00 | 0.00 | 0.00 | 42 | 1006.8 |
| 20260508234831 | 15 | 13 | 8.0 | 12.9 | 0.00 | 0.00 | 0.00 | 42 | 1006.4 |
| 20260508234327 | 15 | 244 | 1.6 | 3.2 | 0.00 | 0.00 | 0.00 | 39 | 1006.6 |
| 20260508233826 | 15 | 204 | 0.0 | 8.0 | 0.00 | 0.00 | 0.00 | 43 | 1006.7 |
| 20260508233325 | 16 | 280 | 4.8 | 8.0 | 0.00 | 0.00 | 0.00 | 38 | 1006.8 |
| 20260508232821 | 16 | 223 | 0.0 | 8.0 | 0.00 | 0.00 | 0.00 | 38 | 1006.9 |
| 20260508232317 | 16 | 233 | 4.8 | 4.8 | 0.00 | 0.00 | 0.00 | 35 | 1006.8 |
| 20260508231816 | 16 | 26 | 3.2 | 3.2 | 0.00 | 0.00 | 0.00 | 37 | 1006.7 |
| 20260508231312 | 16 | 229 | 1.6 | 9.7 | 0.00 | 0.00 | 0.00 | 37 | 1006.8 |
| 20260508230809 | 16 | 257 | 1.6 | 8.0 | 0.00 | 0.00 | 0.00 | 37 | 1006.7 |
| 20260508230305 | 16 | 286 | 1.6 | 11.3 | 0.00 | 0.00 | 0.00 | 40 | 1006.7 |
| 20260508225803 | 16 | 219 | 1.6 | 8.0 | 0.00 | 0.00 | 0.00 | 36 | 1006.6 |
| 20260508225259 | 16 | 332 | 12.9 | 20.9 | 0.00 | 0.00 | 0.00 | 34 | 1006.8 |
| 20260508224757 | 17 | 200 | 1.6 | 9.7 | 0.00 | 0.00 | 0.00 | 34 | 1006.7 |
| 20260508224255 | 17 | 244 | 1.6 | 9.7 | 0.00 | 0.00 | 0.00 | 33 | 1006.7 |
| 20260508223752 | 17 | 226 | 0.0 | 3.2 | 0.00 | 0.00 | 0.00 | 31 | 1006.5 |
| 20260508223249 | 17 | 29 | 6.4 | 11.3 | 0.00 | 0.00 | 0.00 | 32 | 1006.6 |
| 20260508222746 | 17 | 221 | 4.8 | 9.7 | 0.00 | 0.00 | 0.00 | 34 | 1006.8 |
| 20260508222244 | 17 | 227 | 1.6 | 11.3 | 0.00 | 0.00 | 0.00 | 30 | 1006.9 |
| 20260508221740 | 17 | 200 | 3.2 | 3.2 | 0.00 | 0.00 | 0.00 | 32 | 1006.8 |
| 20260508221236 | 17 | 18 | 9.7 | 22.5 | 0.00 | 0.00 | 0.00 | 33 | 1006.7 |
| 20260508220732 | 17 | 284 | 1.6 | 1.6 | 0.00 | 0.00 | 0.00 | 34 | 1006.8 |
| 20260508220229 | 17 | 253 | 3.2 | 9.7 | 0.00 | 0.00 | 0.00 | 29 | 1006.9 |
| 20260508215725 | 17 | 352 | 3.2 | 4.8 | 0.00 | 0.00 | 0.00 | 33 | 1007.0 |
| 20260508215222 | 17 | 352 | 4.8 | 9.7 | 0.00 | 0.00 | 0.00 | 34 | 1006.9 |
| 20260508214719 | 17 | 221 | 4.8 | 20.9 | 0.00 | 0.00 | 0.00 | 35 | 1006.9 |
| 20260508214217 | 17 | 328 | 11.3 | 16.1 | 0.00 | 0.00 | 0.00 | 32 | 1006.9 |
| 20260508213713 | 17 | 16 | 12.9 | 16.1 | 0.00 | 0.00 | 0.00 | 30 | 1006.9 |
| 20260508213209 | 17 | 225 | 3.2 | 9.7 | 0.00 | 0.00 | 0.00 | 34 | 1006.9 |
| 20260508212706 | 16 | 236 | 4.8 | 9.7 | 0.00 | 0.00 | 0.00 | 32 | 1006.9 |
| 20260508212203 | 17 | 0 | 4.8 | 9.7 | 0.00 | 0.00 | 0.00 | 36 | 1007.0 |
| 20260508211658 | 17 | 44 | 8.0 | 16.1 | 0.00 | 0.00 | 0.00 | 32 | 1007.0 |
| 20260508211154 | 17 | 352 | 8.0 | 11.3 | 0.00 | 0.00 | 0.00 | 34 | 1007.1 |
| 20260508210651 | 17 | 9 | 4.8 | 11.3 | 0.00 | 0.00 | 0.00 | 33 | 1007.1 |
| 20260508210149 | 17 | 351 | 6.4 | 9.7 | 0.00 | 0.00 | 0.00 | 34 | 1007.0 |
| 20260508205646 | 17 | 15 | 4.8 | 8.0 | 0.00 | 0.00 | 0.00 | 30 | 1006.9 |
| 20260508205142 | 17 | 251 | 3.2 | 8.0 | 0.00 | 0.00 | 0.00 | 31 | 1007.1 |
| 20260508204638 | 17 | 316 | 3.2 | 3.2 | 0.00 | 0.00 | 0.00 | 30 | 1007.2 |
| 20260508204134 | 17 | 350 | 6.4 | 11.3 | 0.00 | 0.00 | 0.00 | 30 | 1007.0 |
| 20260508203631 | 16 | 238 | 4.8 | 11.3 | 0.00 | 0.00 | 0.00 | 35 | 1007.2 |
| 20260508203127 | 17 | 345 | 9.7 | 17.7 | 0.00 | 0.00 | 0.00 | 31 | 1007.4 |
| 20260508202623 | 17 | 317 | 6.4 | 8.0 | 0.00 | 0.00 | 0.00 | 33 | 1007.4 |
| 20260508202120 | 17 | 162 | 6.4 | 12.9 | 0.00 | 0.00 | 0.00 | 31 | 1007.5 |
| 20260508201617 | 17 | 265 | 9.7 | 14.5 | 0.00 | 0.00 | 0.00 | 34 | 1007.3 |
| 20260508201114 | 17 | 18 | 9.7 | 14.5 | 0.00 | 0.00 | 0.00 | 30 | 1007.7 |
| 20260508200611 | 17 | 27 | 8.0 | 11.3 | 0.00 | 0.00 | 0.00 | 32 | 1007.7 |
| 20260508200107 | 17 | 231 | 1.6 | 9.7 | 0.00 | 0.00 | 0.00 | 34 | 1007.6 |
| 20260508195603 | 17 | 241 | 4.8 | 4.8 | 0.00 | 0.00 | 0.00 | 31 | 1007.5 |
| 20260508195100 | 17 | 221 | 1.6 | 9.7 | 0.00 | 0.00 | 0.00 | 32 | 1007.7 |
| 20260508194556 | 17 | 185 | 1.6 | 4.8 | 0.00 | 0.00 | 0.00 | 34 | 1008.0 |
| 20260508194054 | 17 | 81 | 3.2 | 8.0 | 0.00 | 0.00 | 0.00 | 33 | 1007.8 |
| 20260508193550 | 17 | 242 | 4.8 | 17.7 | 0.00 | 0.00 | 0.00 | 33 | 1007.9 |
| 20260508193047 | 17 | 19 | 3.2 | 4.8 | 0.00 | 0.00 | 0.00 | 34 | 1008.2 |
| 20260508192544 | 17 | 309 | 4.8 | 9.7 | 0.00 | 0.00 | 0.00 | 36 | 1008.2 |
| 20260508192041 | 16 | 222 | 1.6 | 12.9 | 0.00 | 0.00 | 0.00 | 31 | 1008.2 |
| 20260508191537 | 17 | 36 | 8.0 | 12.9 | 0.00 | 0.00 | 0.00 | 32 | 1008.1 |
| 20260508191034 | 17 | 238 | 3.2 | 12.9 | 0.00 | 0.00 | 0.00 | 31 | 1008.3 |
| 20260508190531 | 17 | 200 | 1.6 | 9.7 | 0.00 | 0.00 | 0.00 | 36 | 1008.2 |
| 20260508190028 | 16 | 243 | 4.8 | 16.1 | 0.00 | 0.00 | 0.00 | 37 | 1008.4 |
| 20260508185525 | 17 | 281 | 4.8 | 9.7 | 0.00 | 0.00 | 0.00 | 33 | 1008.5 |
| 20260508185023 | 16 | 343 | 9.7 | 14.5 | 0.00 | 0.00 | 0.00 | 38 | 1008.8 |
| 20260508184520 | 16 | 146 | 3.2 | 8.0 | 0.00 | 0.00 | 0.00 | 35 | 1008.7 |
| 20260508184017 | 16 | 283 | 1.6 | 4.8 | 0.00 | 0.00 | 0.00 | 39 | 1008.6 |
| 20260508183513 | 16 | 11 | 6.4 | 11.3 | 0.00 | 0.00 | 0.00 | 33 | 1008.7 |
| 20260508183009 | 16 | 318 | 17.7 | 24.1 | 0.00 | 0.00 | 0.00 | 34 | 1008.6 |
| 20260508182506 | 16 | 9 | 12.9 | 14.5 | 0.00 | 0.00 | 0.00 | 34 | 1008.6 |
| 20260508182002 | 16 | 17 | 4.8 | 8.0 | 0.00 | 0.00 | 0.00 | 34 | 1008.8 |
| 20260508181458 | 16 | 135 | 6.4 | 12.9 | 0.00 | 0.00 | 0.00 | 34 | 1008.9 |
| 20260508180955 | 16 | 254 | 8.0 | 16.1 | 0.00 | 0.00 | 0.00 | 38 | 1009.0 |
| 20260508180452 | 16 | 349 | 8.0 | 9.7 | 0.00 | 0.00 | 0.00 | 35 | 1009.0 |
| 20260508175948 | 16 | 339 | 8.0 | 14.5 | 0.00 | 0.00 | 0.00 | 34 | 1009.1 |
| 20260508175444 | 16 | 316 | 6.4 | 11.3 | 0.00 | 0.00 | 0.00 | 36 | 1009.1 |
| 20260508174942 | 16 | 5 | 9.7 | 12.9 | 0.00 | 0.00 | 0.00 | 35 | 1009.2 |
| 20260508174439 | 16 | 17 | 6.4 | 12.9 | 0.00 | 0.00 | 0.00 | 34 | 1009.3 |
| 20260508130235 | 9 | 153 | 1.6 | 3.2 | 0.00 | 0.00 | 0.00 | 90 | 1012.4 |
| 20260508125731 | 9 | 153 | 1.6 | 3.2 | 0.00 | 0.00 | 0.00 | 90 | 1012.4 |
| 20260508125227 | 9 | 87 | 1.6 | 4.8 | 0.00 | 0.00 | 0.00 | 90 | 1012.5 |
| 20260508124726 | 9 | 187 | 1.6 | 3.2 | 0.00 | 0.00 | 0.00 | 89 | 1012.6 |
| 20260508124222 | 9 | 168 | 1.6 | 4.8 | 0.00 | 0.00 | 0.00 | 90 | 1012.6 |
| 20260508123720 | 9 | 197 | 3.2 | 3.2 | 0.00 | 0.00 | 0.00 | 90 | 1012.8 |
| 20260508123218 | 8 | 184 | 1.6 | 3.2 | 0.00 | 0.00 | 0.00 | 91 | 1012.6 |
| 20260508122714 | 8 | 166 | 0.0 | 3.2 | 0.00 | 0.00 | 0.00 | 92 | 1012.7 |
| 20260508122211 | 8 | 148 | 0.0 | 3.2 | 0.00 | 0.00 | 0.00 | 93 | 1012.8 |
| 20260508121709 | 7 | 158 | 1.6 | 3.2 | 0.00 | 0.00 | 0.00 | 94 | 1012.7 |
| 20260508121207 | 7 | 130 | 4.8 | 4.8 | 0.00 | 0.00 | 0.00 | 94 | 1012.5 |
| 20260508120704 | 7 | 176 | 1.6 | 3.2 | 0.00 | 0.00 | 0.00 | 95 | 1012.5 |
| 20260508120202 | 6 | 164 | 1.6 | 3.2 | 0.00 | 0.00 | 0.00 | 96 | 1012.5 |
| 20260508115659 | 6 | 178 | 1.6 | 3.2 | 0.00 | 0.00 | 0.00 | 97 | 1012.6 |
| 20260508115156 | 6 | 165 | 0.0 | 1.6 | 0.00 | 0.00 | 0.00 | 97 | 1012.6 |
| 20260508114653 | 5 | 161 | 3.2 | 4.8 | 0.00 | 0.00 | 0.00 | 98 | 1012.5 |
| 20260508114150 | 5 | 177 | 3.2 | 3.2 | 0.00 | 0.00 | 0.00 | 98 | 1012.4 |
| 20260508113646 | 5 | 191 | 1.6 | 1.6 | 0.00 | 0.00 | 0.00 | 99 | 1012.4 |
| 20260508113145 | 4 | 178 | 3.2 | 3.2 | 0.00 | 0.00 | 0.00 | 99 | 1012.5 |
| 20260508112641 | 3 | 186 | 3.2 | 3.2 | 0.00 | 0.00 | 0.00 | 99 | 1012.4 |
| 20260508112138 | 3 | 196 | 1.6 | 3.2 | 0.00 | 0.00 | 0.00 | 99 | 1012.3 |
| 20260508111634 | 3 | 204 | 0.0 | 0.0 | 0.00 | 0.00 | 0.00 | 99 | 1012.3 |
| 20260508111132 | 3 | 204 | 1.6 | 1.6 | 0.00 | 0.00 | 0.00 | 99 | 1012.3 |
| 20260508110630 | 3 | 207 | 0.0 | 1.6 | 0.00 | 0.00 | 0.00 | 99 | 1012.4 |
| 20260508110126 | 3 | 209 | 0.0 | 1.6 | 0.00 | 0.00 | 0.00 | 99 | 1012.3 |
| 20260508105626 | 3 | 213 | 0.0 | 1.6 | 0.00 | 0.00 | 0.00 | 99 | 1012.2 |
| 20260508105123 | 3 | 214 | 0.0 | 0.0 | 0.00 | 0.00 | 0.00 | 99 | 1012.1 |
| 20260508104621 | 3 | 215 | 0.0 | 0.0 | 0.00 | 0.00 | 0.00 | 99 | 1011.9 |
| 20260508104117 | 3 | 215 | 0.0 | 0.0 | 0.00 | 0.00 | 0.00 | 99 | 1011.8 |
| 20260508103614 | 3 | 217 | 0.0 | 0.0 | 0.00 | 0.00 | 0.00 | 99 | 1012.0 |
| 20260508103112 | 3 | 217 | 0.0 | 0.0 | 0.00 | 0.00 | 0.00 | 99 | 1011.9 |
| 20260508102609 | 3 | 217 | 0.0 | 0.0 | 0.00 | 0.00 | 0.00 | 99 | 1012.1 |
| 20260508102107 | 3 | 215 | 0.0 | 0.0 | 0.00 | 0.00 | 0.00 | 99 | 1011.9 |
| 20260508101604 | 3 | 215 | 0.0 | 1.6 | 0.00 | 0.00 | 0.00 | 99 | 1012.2 |
| 20260508101101 | 3 | 215 | 0.0 | 1.6 | 0.00 | 0.00 | 0.00 | 99 | 1011.8 |
| 20260508100559 | 3 | 201 | 0.0 | 1.6 | 0.00 | 0.00 | 0.00 | 99 | 1011.8 |
| 20260508100055 | 3 | 217 | 0.0 | 1.6 | 0.00 | 0.00 | 0.00 | 99 | 1011.9 |
| 20260508095553 | 3 | 217 | 0.0 | 1.6 | 0.00 | 0.00 | 0.00 | 99 | 1011.8 |
| 20260508095049 | 3 | 217 | 0.0 | 0.0 | 0.00 | 0.00 | 0.00 | 99 | 1011.8 |
| 20260508094547 | 3 | 217 | 1.6 | 1.6 | 0.00 | 0.00 | 0.00 | 99 | 1012.0 |
| 20260508094043 | 3 | 217 | 0.0 | 0.0 | 0.00 | 0.00 | 0.00 | 99 | 1011.8 |
| 20260508093541 | 3 | 205 | 1.6 | 3.2 | 0.00 | 0.00 | 0.00 | 99 | 1011.9 |
| 20260508093038 | 3 | 191 | 0.0 | 1.6 | 0.00 | 0.00 | 0.00 | 99 | 1011.9 |
| 20260508092535 | 3 | 214 | 0.0 | 1.6 | 0.00 | 0.00 | 0.00 | 99 | 1011.9 |
| 20260508092034 | 3 | 214 | 0.0 | 1.6 | 0.00 | 0.00 | 0.00 | 99 | 1011.9 |
| 20260508091531 | 3 | 214 | 0.0 | 0.0 | 0.00 | 0.00 | 0.00 | 99 | 1012.2 |
| 20260508091027 | 3 | 214 | 1.6 | 1.6 | 0.00 | 0.00 | 0.00 | 99 | 1011.7 |
| 20260508090526 | 3 | 213 | 1.6 | 3.2 | 0.00 | 0.00 | 0.00 | 99 | 1012.0 |
| 20260508090022 | 3 | 215 | 0.0 | 0.0 | 0.00 | 0.00 | 0.00 | 99 | 1011.9 |
| 20260508085519 | 3 | 215 | 0.0 | 0.0 | 0.00 | 0.00 | 0.00 | 99 | 1012.0 |
| 20260508085016 | 3 | 214 | 0.0 | 0.0 | 0.00 | 0.00 | 0.00 | 99 | 1011.9 |
| 20260508084513 | 4 | 214 | 0.0 | 1.6 | 0.00 | 0.00 | 0.00 | 99 | 1012.1 |
| 20260508084010 | 4 | 214 | 0.0 | 1.6 | 0.00 | 0.00 | 0.00 | 99 | 1012.0 |
| 20260508083507 | 4 | 214 | 1.6 | 1.6 | 0.00 | 0.00 | 0.00 | 99 | 1012.0 |
| 20260508083003 | 4 | 214 | 0.0 | 0.0 | 0.00 | 0.00 | 0.00 | 99 | 1011.8 |
| 20260508082459 | 4 | 213 | 0.0 | 0.0 | 0.00 | 0.00 | 0.00 | 99 | 1011.9 |
| 20260508081957 | 4 | 213 | 0.0 | 0.0 | 0.00 | 0.00 | 0.00 | 99 | 1011.8 |
| 20260508081454 | 4 | 213 | 0.0 | 0.0 | 0.00 | 0.00 | 0.00 | 99 | 1011.9 |
| 20260508080950 | 4 | 213 | 0.0 | 0.0 | 0.00 | 0.00 | 0.00 | 99 | 1011.7 |
| 20260508080449 | 4 | 210 | 1.6 | 1.6 | 0.00 | 0.00 | 0.00 | 99 | 1011.9 |
| 20260508075945 | 4 | 209 | 0.0 | 0.0 | 0.00 | 0.00 | 0.00 | 98 | 1011.9 |
| 20260508075442 | 4 | 209 | 0.0 | 0.0 | 0.00 | 0.00 | 0.00 | 98 | 1011.8 |
| 20260508074939 | 4 | 209 | 0.0 | 0.0 | 0.00 | 0.00 | 0.00 | 98 | 1011.9 |
| 20260508074437 | 4 | 209 | 0.0 | 1.6 | 0.00 | 0.00 | 0.00 | 98 | 1011.9 |
| 20260508073934 | 5 | 209 | 0.0 | 0.0 | 0.00 | 0.00 | 0.00 | 98 | 1011.9 |
| 20260508073431 | 5 | 209 | 1.6 | 1.6 | 0.00 | 0.00 | 0.00 | 98 | 1011.9 |
| 20260508072928 | 5 | 209 | 0.0 | 0.0 | 0.00 | 0.00 | 0.00 | 98 | 1012.1 |
| 20260508072424 | 5 | 209 | 0.0 | 0.0 | 0.00 | 0.00 | 0.00 | 98 | 1011.9 |
| 20260508071922 | 5 | 209 | 0.0 | 0.0 | 0.00 | 0.00 | 0.00 | 98 | 1011.9 |
| 20260508071420 | 5 | 208 | 0.0 | 0.0 | 0.00 | 0.00 | 0.00 | 98 | 1011.9 |
| 20260508070917 | 5 | 208 | 0.0 | 0.0 | 0.00 | 0.00 | 0.00 | 98 | 1012.0 |
| 20260508070415 | 5 | 208 | 0.0 | 0.0 | 0.00 | 0.00 | 0.00 | 98 | 1011.9 |
| 20260508065912 | 5 | 208 | 0.0 | 0.0 | 0.00 | 0.00 | 0.00 | 98 | 1012.0 |
| 20260508065410 | 5 | 208 | 0.0 | 0.0 | 0.00 | 0.00 | 0.00 | 98 | 1012.1 |
| 20260508064908 | 5 | 207 | 0.0 | 0.0 | 0.00 | 0.00 | 0.00 | 98 | 1012.0 |
| 20260508064405 | 5 | 207 | 0.0 | 0.0 | 0.00 | 0.00 | 0.00 | 98 | 1012.1 |
| 20260508063903 | 5 | 207 | 0.0 | 0.0 | 0.00 | 0.00 | 0.00 | 98 | 1012.2 |
| 20260508063401 | 5 | 207 | 0.0 | 1.6 | 0.00 | 0.00 | 0.00 | 98 | 1012.3 |
| 20260508062857 | 5 | 207 | 0.0 | 0.0 | 0.00 | 0.00 | 0.00 | 98 | 1012.4 |
| 20260508062355 | 5 | 206 | 0.0 | 0.0 | 0.00 | 0.00 | 0.00 | 98 | 1012.5 |
| 20260508061852 | 5 | 206 | 0.0 | 1.6 | 0.00 | 0.00 | 0.00 | 97 | 1012.4 |
| 20260508061349 | 5 | 206 | 0.0 | 1.6 | 0.00 | 0.00 | 0.00 | 97 | 1012.5 |
| 20260508060846 | 5 | 206 | 0.0 | 0.0 | 0.00 | 0.00 | 0.00 | 97 | 1012.3 |
| 20260508060344 | 5 | 206 | 0.0 | 0.0 | 0.00 | 0.00 | 0.00 | 97 | 1012.5 |
| 20260508055838 | 5 | 206 | 1.6 | 1.6 | 0.00 | 0.00 | 0.00 | 97 | 1012.5 |
| 20260508055336 | 5 | 206 | 0.0 | 0.0 | 0.00 | 0.00 | 0.00 | 97 | 1012.4 |
| 20260508054832 | 5 | 206 | 0.0 | 0.0 | 0.00 | 0.00 | 0.00 | 97 | 1012.2 |